Time,TemperatureF,DewpointF,PressureIn,WindDirection,WindDirectionDegrees,WindSpeedMPH,WindSpeedGustMPH,Humidity,HourlyPrecipIn,Conditions,Clouds,dailyrainin,SoftwareType,DateUTC
2013-02-03 00:00:00,32.0,-99.9,-100.00,SSW,202,3.0,-999.0,-999,-99.99,,,-99.99,,2013-02-03 08:00:00,
2013-02-03 01:00:00,36.0,-99.9,-100.00,SW,220,3.0,-999.0,-999,-99.99,,,-99.99,,2013-02-03 09:00:00,
2013-02-03 02:00:00,33.0,-99.9,-100.00,South,187,3.0,-999.0,-999,-99.99,,,-99.99,,2013-02-03 10:00:00,
2013-02-03 03:00:00,30.0,-99.9,-100.00,South,187,3.0,-999.0,-999,-99.99,,,-99.99,,2013-02-03 11:00:00,
2013-02-03 04:00:00,28.0,-99.9,-100.00,SW,217,3.0,-999.0,-999,-99.99,,,-99.99,,2013-02-03 12:00:00,
2013-02-03 05:00:00,27.0,-99.9,-100.00,SW,226,2.0,-999.0,-999,-99.99,,,-99.99,,2013-02-03 13:00:00,
2013-02-03 06:00:00,27.0,-99.9,-100.00,SSW,209,3.0,-999.0,-999,-99.99,,,-99.99,,2013-02-03 14:00:00,
2013-02-03 08:00:00,24.0,-99.9,-100.00,SSW,201,2.0,-999.0,-999,-99.99,,,-99.99,,2013-02-03 16:00:00,
2013-02-03 09:00:00,28.0,-99.9,-100.00,SSE,155,2.0,-999.0,-999,-99.99,,,-99.99,,2013-02-03 17:00:00,
2013-02-03 10:00:00,37.0,-99.9,-100.00,SSE,165,2.0,-999.0,-999,-99.99,,,-99.99,,2013-02-03 18:00:00,
2013-02-03 11:00:00,49.0,-99.9,-100.00,SW,227,5.0,-999.0,-999,-99.99,,,-99.99,,2013-02-03 19:00:00,
2013-02-03 12:00:00,52.0,-99.9,-100.00,SSW,213,8.0,-999.0,-999,-99.99,,,-99.99,,2013-02-03 20:00:00,
2013-02-03 13:00:00,54.0,-99.9,-100.00,SW,227,9.0,-999.0,-999,-99.99,,,-99.99,,2013-02-03 21:00:00,
2013-02-03 14:00:00,55.0,-99.9,-100.00,SW,227,6.0,-999.0,-999,-99.99,,,-99.99,,2013-02-03 22:00:00,
2013-02-03 15:00:00,55.0,-99.9,-100.00,ENE,75,5.0,-999.0,-999,-99.99,,,-99.99,,2013-02-03 23:00:00,
2013-02-03 17:00:00,50.0,-99.9,-100.00,SSW,207,2.0,-999.0,-999,-99.99,,,-99.99,,2013-02-04 01:00:00,
2013-02-03 18:00:00,49.0,-99.9,-100.00,SSW,202,5.0,-999.0,-999,-99.99,,,-99.99,,2013-02-04 02:00:00,
2013-02-03 18:52:00,49.0,-99.9,-100.00,SSW,202,5.0,-999.0,-999,-99.99,,,-99.99,,2013-02-04 02:52:00,
2013-02-03 19:00:00,48.0,-99.9,-100.00,SW,231,6.0,-999.0,-999,-99.99,,,-99.99,,2013-02-04 03:00:00,
2013-02-03 20:00:00,48.0,-99.9,-100.00,SW,230,9.0,-999.0,-999,-99.99,,,-99.99,,2013-02-04 04:00:00,
2013-02-03 21:00:00,47.0,-99.9,-100.00,SW,231,8.0,-999.0,-999,-99.99,,,-99.99,,2013-02-04 05:00:00,
2013-02-03 22:00:00,47.0,-99.9,-100.00,SW,221,8.0,-999.0,-999,-99.99,,,-99.99,,2013-02-04 06:00:00,
2013-02-03 23:00:00,46.0,-99.9,-100.00,SW,218,8.0,-999.0,-999,-99.99,,,-99.99,,2013-02-04 07:00:00,